TimeCDT,TemperatureF,Dew PointF,Humidity,Sea Level PressureIn,VisibilityMPH,Wind Direction,Wind SpeedMPH,Gust SpeedMPH,PrecipitationIn,Events,Conditions,WindDirDegrees,DateUTC
12:15 AM,75.2,68.0,78,30.00,10.0,North,6.9,-,N/A,,Overcast,10,2013-06-19 05:15:00
12:35 AM,73.4,68.0,83,30.02,10.0,NNW,4.6,-,N/A,Rain,Rain,340,2013-06-19 05:35:00
12:55 AM,73.4,69.8,88,30.02,5.0,NW,5.8,-,0.05,Rain,Heavy Rain,320,2013-06-19 05:55:00
1:15 AM,71.6,69.8,94,30.01,5.0,North,3.5,-,0.13,Rain,Light Rain,350,2013-06-19 06:15:00
1:35 AM,71.6,69.8,94,29.99,10.0,NNW,3.5,-,0.16,Rain,Rain,330,2013-06-19 06:35:00
1:55 AM,71.6,69.8,94,29.99,10.0,WNW,4.6,-,0.16,,Mostly Cloudy,290,2013-06-19 06:55:00
2:15 AM,71.6,69.8,94,29.98,10.0,Calm,Calm,-,N/A,,Scattered Clouds,0,2013-06-19 07:15:00
2:35 AM,71.6,69.8,94,29.97,10.0,Calm,Calm,-,N/A,,Scattered Clouds,0,2013-06-19 07:35:00
2:55 AM,71.6,69.8,94,29.96,10.0,Calm,Calm,-,N/A,,Scattered Clouds,0,2013-06-19 07:55:00
3:15 AM,71.6,69.8,94,29.95,10.0,Calm,Calm,-,N/A,,Clear,0,2013-06-19 08:15:00
3:35 AM,71.6,69.8,94,29.95,10.0,SE,3.5,-,N/A,,Clear,130,2013-06-19 08:35:00
3:55 AM,71.6,69.8,94,29.95,10.0,Calm,Calm,-,N/A,,Clear,0,2013-06-19 08:55:00
4:15 AM,71.6,69.8,94,29.95,10.0,Calm,Calm,-,0.01,,Clear,0,2013-06-19 09:15:00
4:35 AM,73.4,69.8,88,29.95,10.0,Calm,Calm,-,0.01,,Clear,0,2013-06-19 09:35:00
4:55 AM,71.6,68.0,88,29.96,10.0,Calm,Calm,-,0.01,,Clear,0,2013-06-19 09:55:00
5:15 AM,71.6,69.8,94,29.96,10.0,Calm,Calm,-,N/A,,Clear,0,2013-06-19 10:15:00
5:35 AM,71.6,68.0,88,29.97,7.0,Calm,Calm,-,N/A,,Clear,0,2013-06-19 10:35:00
5:55 AM,71.6,69.8,94,29.98,5.0,Calm,Calm,-,N/A,,Clear,0,2013-06-19 10:55:00
6:15 AM,71.6,68.0,88,29.98,0.8,Calm,Calm,-,N/A,,Mist,0,2013-06-19 11:15:00
6:35 AM,71.6,69.8,94,29.99,7.0,Calm,Calm,-,N/A,,Clear,0,2013-06-19 11:35:00
6:55 AM,73.4,71.6,94,29.99,10.0,Calm,Calm,-,N/A,,Clear,0,2013-06-19 11:55:00
7:15 AM,77.0,73.4,89,29.99,10.0,Calm,Calm,-,N/A,,Clear,0,2013-06-19 12:15:00
7:35 AM,80.6,73.4,79,30.00,10.0,SW,4.6,-,N/A,,Clear,220,2013-06-19 12:35:00
7:55 AM,80.6,71.6,74,30.01,10.0,WSW,8.1,-,N/A,,Clear,240,2013-06-19 12:55:00
8:15 AM,82.4,71.6,70,30.02,10.0,WSW,8.1,-,N/A,,Clear,250,2013-06-19 13:15:00
8:35 AM,82.4,69.8,66,30.02,10.0,WSW,6.9,-,N/A,,Clear,240,2013-06-19 13:35:00
8:55 AM,82.4,69.8,66,30.02,10.0,West,9.2,-,N/A,,Clear,260,2013-06-19 13:55:00
9:15 AM,84.2,69.8,62,30.02,10.0,WNW,9.2,16.1,N/A,,Clear,290,2013-06-19 14:15:00
9:35 AM,84.2,69.8,62,30.02,10.0,WSW,10.4,-,N/A,,Clear,250,2013-06-19 14:35:00
9:55 AM,84.2,69.8,62,30.02,10.0,West,10.4,18.4,N/A,,Clear,260,2013-06-19 14:55:00
10:15 AM,84.2,69.8,62,30.03,10.0,West,8.1,-,N/A,,Scattered Clouds,270,2013-06-19 15:15:00
10:35 AM,86.0,69.8,58,30.03,10.0,West,9.2,17.3,N/A,,Scattered Clouds,270,2013-06-19 15:35:00
10:55 AM,86.0,69.8,58,30.03,10.0,North,-9999.0,-,N/A,,Mostly Cloudy,0,2013-06-19 15:55:00
11:15 AM,86.0,69.8,58,30.03,10.0,WNW,10.4,-,N/A,,Scattered Clouds,290,2013-06-19 16:15:00
11:35 AM,84.2,69.8,62,30.03,10.0,West,10.4,-,N/A,,Scattered Clouds,260,2013-06-19 16:35:00
11:55 AM,82.4,68.0,62,30.03,10.0,WNW,6.9,-,N/A,,Clear,300,2013-06-19 16:55:00
12:15 PM,86.0,68.0,55,30.02,10.0,NW,5.8,-,N/A,,Clear,310,2013-06-19 17:15:00
12:35 PM,86.0,69.8,58,30.02,10.0,WNW,6.9,-,N/A,,Clear,300,2013-06-19 17:35:00
12:55 PM,87.8,68.0,52,30.02,10.0,WNW,10.4,16.1,N/A,,Scattered Clouds,290,2013-06-19 17:55:00
1:15 PM,87.8,68.0,52,30.01,10.0,West,10.4,-,N/A,,Scattered Clouds,280,2013-06-19 18:15:00
1:35 PM,86.0,68.0,55,30.01,10.0,West,11.5,-,N/A,,Clear,260,2013-06-19 18:35:00
1:55 PM,87.8,66.2,49,30.00,10.0,West,8.1,-,N/A,,Scattered Clouds,280,2013-06-19 18:55:00
2:15 PM,86.0,68.0,55,30.00,10.0,West,8.1,-,N/A,,Scattered Clouds,280,2013-06-19 19:15:00
2:35 PM,86.0,66.2,51,30.00,10.0,West,8.1,-,N/A,,Scattered Clouds,270,2013-06-19 19:35:00
2:55 PM,86.0,64.4,48,30.00,10.0,NW,8.1,-,N/A,,Scattered Clouds,320,2013-06-19 19:55:00
3:15 PM,86.0,66.2,51,29.99,10.0,West,6.9,-,N/A,,Clear,260,2013-06-19 20:15:00
3:35 PM,86.0,68.0,55,29.99,10.0,WSW,5.8,-,N/A,,Clear,250,2013-06-19 20:35:00
3:55 PM,86.0,69.8,58,29.99,10.0,West,8.1,-,N/A,,Clear,260,2013-06-19 20:55:00
4:15 PM,84.2,69.8,62,29.98,10.0,West,6.9,-,N/A,,Clear,260,2013-06-19 21:15:00
4:35 PM,86.0,69.8,58,29.98,10.0,WSW,5.8,-,N/A,,Clear,250,2013-06-19 21:35:00
4:55 PM,86.0,68.0,55,29.98,10.0,Calm,Calm,-,N/A,,Clear,0,2013-06-19 21:55:00
5:15 PM,87.8,68.0,52,29.97,10.0,WNW,5.8,-,N/A,,Clear,290,2013-06-19 22:15:00
5:35 PM,86.0,68.0,55,29.97,10.0,WSW,6.9,-,N/A,,Clear,250,2013-06-19 22:35:00
5:55 PM,84.2,69.8,62,29.98,10.0,WSW,8.1,-,N/A,,Clear,250,2013-06-19 22:55:00
6:15 PM,82.4,69.8,66,29.98,10.0,WSW,8.1,-,N/A,,Clear,250,2013-06-19 23:15:00
6:35 PM,82.4,69.8,66,29.99,10.0,North,-9999.0,-,N/A,,Clear,0,2013-06-19 23:35:00
6:55 PM,82.4,71.6,70,30.00,10.0,North,-9999.0,-,N/A,,Clear,0,2013-06-19 23:55:00
7:15 PM,82.4,71.6,70,30.00,10.0,WSW,5.8,-,N/A,,Clear,240,2013-06-20 00:15:00
7:35 PM,80.6,69.8,70,30.00,10.0,North,-9999.0,-,N/A,,Clear,0,2013-06-20 00:35:00
7:55 PM,80.6,71.6,74,30.00,10.0,Calm,Calm,-,N/A,,Clear,0,2013-06-20 00:55:00
8:15 PM,80.6,71.6,74,30.01,10.0,West,3.5,-,N/A,,Clear,270,2013-06-20 01:15:00
8:35 PM,78.8,71.6,78,30.02,10.0,West,3.5,-,N/A,,Clear,260,2013-06-20 01:35:00
8:55 PM,78.8,71.6,78,30.02,10.0,Calm,Calm,-,N/A,,Clear,0,2013-06-20 01:55:00
9:15 PM,77.0,71.6,83,30.02,10.0,Calm,Calm,-,N/A,,Clear,0,2013-06-20 02:15:00
9:35 PM,77.0,71.6,83,30.02,10.0,Calm,Calm,-,N/A,,Clear,0,2013-06-20 02:35:00
9:55 PM,75.2,71.6,89,30.02,10.0,Calm,Calm,-,N/A,,Clear,0,2013-06-20 02:55:00
10:15 PM,75.2,71.6,89,30.03,10.0,North,3.5,-,N/A,,Clear,10,2013-06-20 03:15:00
10:35 PM,77.0,71.6,83,30.04,10.0,North,3.5,-,N/A,,Clear,10,2013-06-20 03:35:00
10:55 PM,75.2,71.6,89,30.04,10.0,Calm,Calm,-,N/A,,Clear,0,2013-06-20 03:55:00
11:15 PM,75.2,71.6,89,30.05,10.0,Calm,Calm,-,N/A,,Clear,0,2013-06-20 04:15:00
11:35 PM,75.2,71.6,89,30.05,10.0,Calm,Calm,-,N/A,,Clear,0,2013-06-20 04:35:00
11:55 PM,77.0,71.6,83,30.04,10.0,Calm,Calm,-,N/A,,Clear,0,2013-06-20 04:55:00